• In Netherlands
  • List of Countries
  • For 7 days
  • Water Temperature
  • Satellite Maps
  • Weather Map
  • Weather Widgets
  • user-avatar
    Login

    Hourly Weather Jalalabad

    Today, 28 May, Sunday

    Time Temperature Precipitation Wind Pressure Humidity
    00:00 +31°C° 0 mm 3 mps 704 mmHg 16%
    01:00 +30°C° 0 mm 3 mps 704 mmHg 17%
    02:00 +29°C° 0 mm 3 mps 704 mmHg 18%
    03:00 +29°C° 0 mm 3 mps 704 mmHg 18%
    04:00 +28°C° 0 mm 3 mps 704 mmHg 18%
    05:00 +28°C° 0 mm 3 mps 704 mmHg 19%
    06:00 +30°C° 0 mm 3 mps 704 mmHg 17%
    07:00 +34°C° 0 mm 3 mps 705 mmHg 15%
    08:00 +36°C° 0 mm 3 mps 705 mmHg 13%
    09:00 +37°C° 0 mm 3 mps 705 mmHg 11%
    10:00 +39°C° 0 mm 3 mps 705 mmHg 10%
    11:00 +40°C° 0 mm 3 mps 705 mmHg 8%
    12:00 +42°C° 0 mm 3 mps 705 mmHg 8%
    13:00 +43°C° 0 mm 3 mps 704 mmHg 7%
    14:00 +43°C° 0 mm 3 mps 704 mmHg 7%
    15:00 +43°C° 0 mm 3 mps 704 mmHg 7%
    16:00 +43°C° 0 mm 4 mps 704 mmHg 7%
    17:00 +42°C° 0 mm 4 mps 703 mmHg 7%
    18:00 +40°C° 0 mm 4 mps 703 mmHg 9%
    19:00 +36°C° 0 mm 3 mps 703 mmHg 11%
    20:00 +34°C° 0 mm 3 mps 703 mmHg 13%
    21:00 +33°C° 0 mm 3 mps 704 mmHg 14%
    22:00 +31°C° 0 mm 3 mps 704 mmHg 15%
    23:00 +32°C° 0 mm 4 mps 704 mmHg 17%

    Tomorrow, 29 May, Monday

    Time Temperature Precipitation Wind Pressure Humidity
    00:00 +30°C° 0 mm 4 mps 704 mmHg 17%
    01:00 +30°C° 0 mm 4 mps 704 mmHg 18%
    02:00 +29°C° 0 mm 4 mps 704 mmHg 19%
    03:00 +28°C° 0 mm 4 mps 704 mmHg 19%
    04:00 +28°C° 0 mm 3 mps 703 mmHg 19%
    05:00 +27°C° 0 mm 3 mps 703 mmHg 19%
    06:00 +29°C° 0 mm 4 mps 704 mmHg 17%
    07:00 +33°C° 0 mm 4 mps 704 mmHg 15%
    08:00 +35°C° 0 mm 4 mps 705 mmHg 13%
    09:00 +37°C° 0 mm 4 mps 705 mmHg 11%
    10:00 +38°C° 0 mm 4 mps 705 mmHg 9%
    11:00 +41°C° 0 mm 4 mps 705 mmHg 7%
    12:00 +42°C° 0 mm 4 mps 704 mmHg 7%
    13:00 +43°C° 0 mm 4 mps 704 mmHg 6%
    14:00 +44°C° 0 mm 3 mps 704 mmHg 6%
    15:00 +43°C° 0 mm 4 mps 703 mmHg 6%
    16:00 +43°C° 0 mm 4 mps 703 mmHg 6%
    17:00 +43°C° 0 mm 4 mps 703 mmHg 6%
    18:00 +40°C° 0 mm 4 mps 703 mmHg 8%
    19:00 +37°C° 0 mm 4 mps 703 mmHg 9%
    20:00 +35°C° 0 mm 3 mps 703 mmHg 11%
    21:00 +34°C° 0 mm 4 mps 703 mmHg 12%
    22:00 +33°C° 0 mm 4 mps 704 mmHg 13%
    23:00 +33°C° 0 mm 4 mps 704 mmHg 14%

    Day after tomorrow, 30 May, Tuesday

    Time Temperature Precipitation Wind Pressure Humidity
    00:00 +32°C° 0 mm 4 mps 704 mmHg 14%
    01:00 +32°C° 0 mm 4 mps 704 mmHg 15%
    02:00 +30°C° 0 mm 4 mps 703 mmHg 15%
    03:00 +29°C° 0 mm 4 mps 703 mmHg 15%
    04:00 +28°C° 0 mm 4 mps 703 mmHg 15%
    05:00 +28°C° 0 mm 4 mps 703 mmHg 15%
    06:00 +30°C° 0 mm 4 mps 704 mmHg 14%
    07:00 +34°C° 0 mm 4 mps 704 mmHg 13%
    08:00 +36°C° 0 mm 5 mps 705 mmHg 11%
    09:00 +38°C° 0 mm 4 mps 705 mmHg 10%
    10:00 +40°C° 0 mm 4 mps 705 mmHg 9%
    11:00 +42°C° 0 mm 4 mps 705 mmHg 8%
    12:00 +42°C° 0 mm 4 mps 704 mmHg 8%
    13:00 +43°C° 0 mm 4 mps 704 mmHg 7%
    14:00 +43°C° 0 mm 5 mps 704 mmHg 7%
    15:00 +43°C° 0 mm 5 mps 703 mmHg 8%
    16:00 +44°C° 0 mm 6 mps 703 mmHg 8%
    17:00 +42°C° 0 mm 6 mps 702 mmHg 9%
    18:00 +40°C° 0 mm 6 mps 703 mmHg 11%
    19:00 +38°C° 0 mm 6 mps 703 mmHg 14%
    20:00 +34°C° 0 mm 6 mps 703 mmHg 16%
    21:00 +34°C° 0 mm 6 mps 703 mmHg 18%
    22:00 +33°C° 0 mm 5 mps 703 mmHg 20%
    23:00 +32°C° 0 mm 5 mps 704 mmHg 22%

    31 May, Wednesday

    Time Temperature Precipitation Wind Pressure Humidity
    00:00 +30°C° 0 mm 5 mps 703 mmHg 24%
    01:00 +30°C° 0 mm 5 mps 703 mmHg 25%
    02:00 +29°C° 0 mm 4 mps 703 mmHg 26%
    03:00 +28°C° 0 mm 4 mps 703 mmHg 27%
    04:00 +28°C° 0 mm 4 mps 703 mmHg 28%
    05:00 +27°C° 0 mm 4 mps 703 mmHg 28%
    06:00 +29°C° 0 mm 4 mps 703 mmHg 25%
    07:00 +32°C° 0 mm 5 mps 704 mmHg 22%
    08:00 +33°C° 0 mm 5 mps 704 mmHg 19%
    09:00 +35°C° 0 mm 5 mps 704 mmHg 17%
    10:00 +36°C° 0 mm 4 mps 704 mmHg 15%
    11:00 +37°C° 0 mm 4 mps 704 mmHg 13%
    12:00 +38°C° 0 mm 4 mps 704 mmHg 12%
    13:00 +40°C° 0 mm 4 mps 703 mmHg 11%
    14:00 +40°C° 0 mm 4 mps 703 mmHg 10%
    15:00 +40°C° 0 mm 4 mps 703 mmHg 10%
    16:00 +40°C° 0 mm 5 mps 702 mmHg 10%
    17:00 +40°C° 0 mm 5 mps 702 mmHg 9%
    18:00 +37°C° 0 mm 5 mps 702 mmHg 11%
    19:00 +35°C° 0 mm 4 mps 702 mmHg 13%
    20:00 +32°C° 0 mm 4 mps 702 mmHg 14%
    21:00 +32°C° 0 mm 4 mps 703 mmHg 16%
    22:00 +30°C° 0 mm 4 mps 703 mmHg 18%
    23:00 +30°C° 0 mm 5 mps 703 mmHg 19%

    1 June, Thursday

    Time Temperature Precipitation Wind Pressure Humidity
    00:00 +29°C° 0 mm 4 mps 703 mmHg 20%
    01:00 +28°C° 0 mm 4 mps 703 mmHg 21%
    02:00 +28°C° 0 mm 4 mps 703 mmHg 22%
    03:00 +27°C° 0 mm 4 mps 703 mmHg 22%
    04:00 +26°C° 0 mm 4 mps 703 mmHg 22%
    05:00 +26°C° 0 mm 3 mps 703 mmHg 22%
    06:00 +28°C° 0 mm 3 mps 704 mmHg 19%
    07:00 +30°C° 0 mm 4 mps 704 mmHg 16%
    08:00 +33°C° 0 mm 4 mps 705 mmHg 13%
    09:00 +34°C° 0 mm 4 mps 705 mmHg 12%
    10:00 +35°C° 0 mm 3 mps 705 mmHg 10%
    11:00 +37°C° 0 mm 3 mps 705 mmHg 9%
    12:00 +38°C° 0 mm 2 mps 705 mmHg 8%
    13:00 +38°C° 0 mm 2 mps 704 mmHg 8%
    14:00 +39°C° 0 mm 2 mps 704 mmHg 7%
    15:00 +39°C° 0 mm 2 mps 704 mmHg 7%
    16:00 +39°C° 0 mm 2 mps 704 mmHg 7%
    17:00 +39°C° 0 mm 2 mps 703 mmHg 7%
    18:00 +36°C° 0 mm 2 mps 704 mmHg 9%
    19:00 +33°C° 0 mm 1 mps 704 mmHg 11%
    20:00 +30°C° 0 mm 1 mps 704 mmHg 14%
    21:00 +30°C° 0 mm 1 mps 704 mmHg 14%
    22:00 +29°C° 0 mm 1 mps 704 mmHg 15%
    23:00 +29°C° 0 mm 1 mps 704 mmHg 15%

    2 June, Friday

    Time Temperature Precipitation Wind Pressure Humidity
    00:00 +28°C° 0 mm 1 mps 704 mmHg 16%
    01:00 +28°C° 0 mm 2 mps 704 mmHg 17%
    02:00 +27°C° 0 mm 2 mps 703 mmHg 17%
    03:00 +27°C° 0 mm 2 mps 703 mmHg 18%
    04:00 +26°C° 0 mm 2 mps 703 mmHg 18%
    05:00 +26°C° 0 mm 2 mps 703 mmHg 19%
    06:00 +29°C° 0 mm 2 mps 704 mmHg 16%
    07:00 +31°C° 0 mm 1 mps 705 mmHg 14%
    08:00 +34°C° 0 mm 1 mps 705 mmHg 12%
    09:00 +35°C° 0 mm 1 mps 705 mmHg 11%
    10:00 +36°C° 0 mm 1 mps 705 mmHg 10%
    11:00 +39°C° 0 mm 1 mps 705 mmHg 9%
    12:00 +40°C° 0 mm 2 mps 705 mmHg 9%
    13:00 +40°C° 0 mm 2 mps 704 mmHg 9%
    14:00 +41°C° 0 mm 2 mps 704 mmHg 8%
    15:00 +41°C° 0 mm 2 mps 704 mmHg 9%
    16:00 +42°C° 0 mm 3 mps 703 mmHg 9%
    17:00 +42°C° 0 mm 3 mps 703 mmHg 9%
    18:00 +38°C° 0 mm 2 mps 703 mmHg 12%
    19:00 +35°C° 0 mm 1 mps 704 mmHg 15%
    20:00 +32°C° 0 mm 1 mps 704 mmHg 18%
    21:00 +31°C° 0 mm 1 mps 704 mmHg 19%
    22:00 +31°C° 0 mm 1 mps 704 mmHg 19%
    23:00 +30°C° 0 mm 1 mps 704 mmHg 20%
    Show more